When you browse on this site, cookies collect data to enhance your experience and personalize the content and advertising you see.
Visit our Privacy Policy to learn more. By continuing to use the site, you agree to this use of cookies and data.
  • In Lithuania
  • List of Countries
  • For 7 days
  • Water Temperature
  • Satellite Maps
  • Weather Map
  • Weather Widgets
  • user-avatar
    Login

    Hourly Weather Yaloch

    Today, 20 July, Saturday

    Time Temperature Precipitation Wind Pressure Humidity
    00:00 +16°C° 0 mm 1 mps 748 mmHg 76%
    01:00 +16°C° 0 mm 1 mps 748 mmHg 76%
    02:00 +16°C° 0 mm 2 mps 748 mmHg 76%
    03:00 +16°C° 0 mm 2 mps 748 mmHg 78%
    04:00 +16°C° 0 mm 2 mps 748 mmHg 79%
    05:00 +16°C° 0 mm 2 mps 749 mmHg 81%
    06:00 +17°C° 0 mm 2 mps 749 mmHg 79%
    07:00 +19°C° 0 mm 2 mps 749 mmHg 77%
    08:00 +21°C° 0 mm 1 mps 749 mmHg 75%
    09:00 +21°C° 0.4 mm 2 mps 749 mmHg 71%
    10:00 +24°C° 0.4 mm 2 mps 749 mmHg 67%
    11:00 +25°C° 0.4 mm 2 mps 750 mmHg 63%
    12:00 +26°C° 0.1 mm 2 mps 749 mmHg 59%
    13:00 +26°C° 0.1 mm 2 mps 749 mmHg 54%
    14:00 +27°C° 0.1 mm 1 mps 749 mmHg 50%
    15:00 +27°C° 0 mm 1 mps 749 mmHg 51%
    16:00 +27°C° 0 mm 1 mps 749 mmHg 51%
    17:00 +27°C° 0 mm 1 mps 749 mmHg 51%
    18:00 +25°C° 0 mm 1 mps 749 mmHg 59%
    19:00 +23°C° 0 mm 2 mps 749 mmHg 67%
    20:00 +21°C° 0 mm 2 mps 749 mmHg 76%
    21:00 +20°C° 0 mm 2 mps 749 mmHg 79%
    22:00 +19°C° 0 mm 2 mps 749 mmHg 83%
    23:00 +18°C° 0 mm 2 mps 749 mmHg 86%

    Tomorrow, 21 July, Sunday

    Time Temperature Precipitation Wind Pressure Humidity
    00:00 +19°C° 0 mm 1 mps 749 mmHg 87%
    01:00 +18°C° 0 mm 1 mps 749 mmHg 89%
    02:00 +18°C° 0 mm 1 mps 749 mmHg 90%
    03:00 +18°C° 0 mm 1 mps 749 mmHg 91%
    04:00 +18°C° 0 mm 1 mps 749 mmHg 91%
    05:00 +16°C° 0 mm 1 mps 749 mmHg 92%
    06:00 +19°C° 0 mm 1 mps 749 mmHg 87%
    07:00 +21°C° 0 mm 1 mps 749 mmHg 83%
    08:00 +22°C° 0 mm 1 mps 749 mmHg 78%
    09:00 +23°C° 0 mm 1 mps 750 mmHg 73%
    10:00 +25°C° 0 mm 1 mps 750 mmHg 68%
    11:00 +26°C° 0 mm 2 mps 750 mmHg 64%
    12:00 +27°C° 0.1 mm 2 mps 749 mmHg 61%
    13:00 +27°C° 0.1 mm 2 mps 749 mmHg 59%
    14:00 +28°C° 0.1 mm 1 mps 749 mmHg 56%
    15:00 +28°C° 0 mm 1 mps 748 mmHg 58%
    16:00 +28°C° 0 mm 1 mps 748 mmHg 60%
    17:00 +28°C° 0 mm 1 mps 748 mmHg 62%
    18:00 +26°C° 0.3 mm 1 mps 748 mmHg 68%
    19:00 +25°C° 0.3 mm 2 mps 748 mmHg 74%
    20:00 +23°C° 0.3 mm 2 mps 748 mmHg 80%
    21:00 +21°C° 1.3 mm 3 mps 748 mmHg 84%
    22:00 +20°C° 1.3 mm 4 mps 748 mmHg 88%
    23:00 +19°C° 1.3 mm 5 mps 748 mmHg 92%

    Day after tomorrow, 22 July, Monday

    Time Temperature Precipitation Wind Pressure Humidity
    00:00 +18°C° 0.2 mm 4 mps 748 mmHg 93%
    01:00 +18°C° 0.2 mm 3 mps 747 mmHg 95%
    02:00 +18°C° 0.2 mm 3 mps 747 mmHg 96%
    03:00 +18°C° 0.9 mm 3 mps 747 mmHg 97%
    04:00 +18°C° 0.9 mm 3 mps 748 mmHg 97%
    05:00 +18°C° 0.9 mm 3 mps 748 mmHg 97%
    06:00 +18°C° 0.4 mm 4 mps 748 mmHg 96%
    07:00 +19°C° 0.4 mm 5 mps 748 mmHg 94%
    08:00 +19°C° 0.4 mm 6 mps 748 mmHg 92%
    09:00 +20°C° 0.3 mm 6 mps 748 mmHg 88%
    10:00 +20°C° 0.3 mm 6 mps 749 mmHg 84%
    11:00 +21°C° 0.3 mm 7 mps 749 mmHg 80%
    12:00 +21°C° 0.1 mm 7 mps 749 mmHg 79%
    13:00 +21°C° 0.1 mm 7 mps 749 mmHg 78%
    14:00 +20°C° 0.1 mm 7 mps 749 mmHg 78%
    15:00 +21°C° 0.1 mm 7 mps 749 mmHg 76%
    16:00 +21°C° 0.1 mm 7 mps 749 mmHg 75%
    17:00 +22°C° 0.1 mm 7 mps 749 mmHg 74%
    18:00 +21°C° 0 mm 6 mps 749 mmHg 77%
    19:00 +19°C° 0 mm 5 mps 749 mmHg 79%
    20:00 +17°C° 0 mm 5 mps 749 mmHg 82%
    21:00 +17°C° 0 mm 4 mps 749 mmHg 83%
    22:00 +15°C° 0 mm 4 mps 749 mmHg 83%
    23:00 +15°C° 0 mm 4 mps 749 mmHg 84%

    23 July, Tuesday

    Time Temperature Precipitation Wind Pressure Humidity
    00:00 +14°C° 0 mm 4 mps 749 mmHg 87%
    01:00 +13°C° 0 mm 4 mps 749 mmHg 90%
    02:00 +12°C° 0 mm 4 mps 749 mmHg 92%
    03:00 +12°C° 0 mm 5 mps 749 mmHg 93%
    04:00 +12°C° 0 mm 5 mps 749 mmHg 94%
    05:00 +12°C° 0 mm 5 mps 748 mmHg 96%
    06:00 +13°C° 0 mm 6 mps 748 mmHg 92%
    07:00 +14°C° 0 mm 6 mps 748 mmHg 89%
    08:00 +15°C° 0 mm 7 mps 748 mmHg 86%
    09:00 +16°C° 0 mm 7 mps 748 mmHg 85%
    10:00 +16°C° 0 mm 7 mps 748 mmHg 84%
    11:00 +17°C° 0 mm 7 mps 748 mmHg 83%
    12:00 +17°C° 0.1 mm 7 mps 748 mmHg 84%
    13:00 +17°C° 0.1 mm 7 mps 748 mmHg 84%
    14:00 +17°C° 0.1 mm 7 mps 748 mmHg 84%
    15:00 +17°C° 0.2 mm 6 mps 748 mmHg 85%
    16:00 +17°C° 0.2 mm 6 mps 748 mmHg 86%
    17:00 +17°C° 0.2 mm 5 mps 748 mmHg 88%
    18:00 +17°C° 0 mm 5 mps 748 mmHg 87%
    19:00 +19°C° 0 mm 5 mps 748 mmHg 86%
    20:00 +19°C° 0 mm 5 mps 748 mmHg 85%
    21:00 +19°C° 0 mm 5 mps 748 mmHg 87%
    22:00 +18°C° 0 mm 4 mps 748 mmHg 88%
    23:00 +17°C° 0 mm 4 mps 749 mmHg 90%

    24 July, Wednesday

    Time Temperature Precipitation Wind Pressure Humidity
    00:00 +17°C° 0 mm 4 mps 749 mmHg 91%
    01:00 +15°C° 0 mm 4 mps 749 mmHg 93%
    02:00 +15°C° 0 mm 4 mps 749 mmHg 94%
    03:00 +14°C° 0 mm 4 mps 749 mmHg 94%
    04:00 +14°C° 0 mm 4 mps 749 mmHg 95%
    05:00 +14°C° 0 mm 4 mps 749 mmHg 95%
    06:00 +15°C° 0 mm 4 mps 749 mmHg 91%
    07:00 +18°C° 0 mm 4 mps 749 mmHg 86%
    08:00 +19°C° 0 mm 4 mps 750 mmHg 81%
    09:00 +21°C° 0 mm 4 mps 750 mmHg 74%
    10:00 +22°C° 0 mm 5 mps 750 mmHg 67%
    11:00 +25°C° 0 mm 5 mps 750 mmHg 59%
    12:00 +25°C° 0 mm 5 mps 750 mmHg 58%
    13:00 +25°C° 0 mm 5 mps 750 mmHg 57%
    14:00 +26°C° 0 mm 5 mps 750 mmHg 55%
    15:00 +25°C° 0 mm 5 mps 750 mmHg 58%
    16:00 +25°C° 0 mm 5 mps 750 mmHg 60%
    17:00 +25°C° 0 mm 4 mps 750 mmHg 62%
    18:00 +23°C° 0 mm 4 mps 750 mmHg 67%
    19:00 +21°C° 0 mm 3 mps 750 mmHg 73%
    20:00 +20°C° 0 mm 2 mps 750 mmHg 78%
    21:00 +19°C° 0 mm 2 mps 750 mmHg 79%
    22:00 +18°C° 0 mm 2 mps 751 mmHg 81%
    23:00 +17°C° 0 mm 2 mps 751 mmHg 82%

    25 July, Thursday

    Time Temperature Precipitation Wind Pressure Humidity
    00:00 +17°C° 0 mm 2 mps 751 mmHg 84%
    01:00 +16°C° 0 mm 2 mps 751 mmHg 87%
    02:00 +16°C° 0 mm 2 mps 751 mmHg 89%
    03:00 +16°C° 0 mm 2 mps 751 mmHg 89%
    04:00 +16°C° 0 mm 2 mps 751 mmHg 90%
    05:00 +16°C° 0 mm 2 mps 751 mmHg 90%
    06:00 +17°C° 0 mm 2 mps 751 mmHg 86%
    07:00 +19°C° 0 mm 2 mps 752 mmHg 82%
    08:00 +20°C° 0 mm 2 mps 752 mmHg 78%
    09:00 +22°C° 0 mm 3 mps 752 mmHg 71%
    10:00 +24°C° 0 mm 3 mps 752 mmHg 65%
    11:00 +25°C° 0 mm 3 mps 752 mmHg 59%
    12:00 +26°C° 0 mm 3 mps 752 mmHg 56%
    13:00 +26°C° 0 mm 3 mps 752 mmHg 54%
    14:00 +27°C° 0 mm 3 mps 752 mmHg 52%
    15:00 +27°C° 0 mm 3 mps 752 mmHg 54%
    16:00 +26°C° 0 mm 3 mps 752 mmHg 55%
    17:00 +26°C° 0 mm 3 mps 752 mmHg 57%
    18:00 +25°C° 0 mm 3 mps 752 mmHg 63%
    19:00 +23°C° 0 mm 2 mps 752 mmHg 69%
    20:00 +20°C° 0 mm 2 mps 752 mmHg 75%
    21:00 +20°C° 0 mm 2 mps 752 mmHg 78%
    22:00 +19°C° 0 mm 2 mps 752 mmHg 80%
    23:00 +18°C° 0 mm 2 mps 752 mmHg 83%
    Show more